Location: Unspecified
(51.0000°N, 12.0000°E)
Time: 06:49:57
(UTC+01:00)

ISS - Visible Passes

Search period start: 25 November 2017 00:00
Search period end: 05 December 2017 00:00
Orbit: 401 x 407 km, 51.6° (Epoch: 25 November)

Date Brightness Start Highest point End Pass type
(mag) Time Alt. Az. Time Alt. Az. Time Alt. Az.
28 Nov -1.6 18:16:25 10° S 18:17:44 16° SSE 18:17:44 16° SSE visible
29 Nov -1.4 17:25:36 10° SSE 17:26:32 11° SE 17:27:30 10° ESE visible
29 Nov -1.3 18:59:14 10° SW 19:00:16 18° SW 19:00:16 18° SW visible
30 Nov -2.7 18:07:09 10° SSW 18:10:04 30° SSE 18:10:04 30° SSE visible
01 Dec -2.0 17:15:19 10° SSW 17:17:50 20° SE 17:19:49 13° E visible
01 Dec -2.0 18:50:39 10° WSW 18:52:28 30° WSW 18:52:28 30° WSW visible
02 Dec -3.4 17:58:19 10° SW 18:01:31 51° SSE 18:02:09 43° ESE visible
02 Dec -0.2 19:34:39 10° W 19:34:47 11° W 19:34:47 11° W visible
03 Dec -2.7 17:06:08 10° SW 17:09:10 35° SSE 17:11:47 13° E visible
03 Dec -2.5 18:42:10 10° W 18:44:26 41° W 18:44:26 41° W visible
04 Dec -3.9 17:49:42 10° WSW 17:53:00 77° SSE 17:54:02 40° E visible
04 Dec -0.5 19:26:14 10° W 19:26:40 13° W 19:26:40 13° W visible
